This is the latest recevied weather packets stored in our database for station/object IA5ITY-13. If no packets are shown the sender has not sent any weather packets the latest 10 day(s).
| Time | Temp. | Humidity | Pressure | Rain* | Wind** | Luminosity | Snow |
|---|---|---|---|---|---|---|---|
| 1777914613 | 17.78° C | 88% | 1015 hPa | 0 mm | - | - | - |
| 1777908623 | 21.11° C | 66% | 1015.6 hPa | 0 mm | - | - | - |
| 1777905613 | 20° C | 68% | 1015.8 hPa | 0 mm | - | - | - |
| 1777905309 | 20° C | 70% | 1015.8 hPa | 0 mm | - | - | - |
| 1777904113 | 22.78° C | 59% | 1016 hPa | 0 mm | - | - | - |
| 1777901709 | 22.22° C | 62% | 1016.1 hPa | 0 mm | - | - | - |
| 1777901424 | 21.11° C | 63% | 1016 hPa | 0 mm | - | - | - |
| 1777901110 | 22.78° C | 61% | 1016.1 hPa | 0 mm | - | - | - |
| 1777900813 | 22.78° C | 60% | 1016 hPa | 0 mm | - | - | - |
| 1777900513 | 22.78° C | 60% | 1016.1 hPa | 0 mm | - | - | - |
| 1777898413 | 20° C | 68% | 1016.5 hPa | 0 mm | - | - | - |
| 1777898110 | 21.11° C | 66% | 1016.6 hPa | 0 mm | - | - | - |
| 1777897824 | 20° C | 66% | 1016.5 hPa | 0 mm | - | - | - |
| 1777897510 | 20° C | 64% | 1016.6 hPa | 0 mm | - | - | - |
| 1777897213 | 20° C | 65% | 1016.5 hPa | 0 mm | - | - | - |
| 1777896912 | 21.11° C | 64% | 1016.6 hPa | 0 mm | - | - | - |
| 1777896613 | 22.22° C | 58% | 1016.6 hPa | 0 mm | - | - | - |
| 1777896310 | 22.22° C | 57% | 1016.6 hPa | 0 mm | - | - | - |
| 1777896033 | 22.22° C | 60% | 1016.6 hPa | 0 mm | - | - | - |
| 1777895709 | 22.22° C | 61% | 1016.5 hPa | 0 mm | - | - | - |
| 1777895413 | 20° C | 64% | 1016.5 hPa | 0 mm | - | - | - |
| 1777895113 | 20° C | 66% | 1016.7 hPa | 0 mm | - | - | - |
| 1777894814 | 20° C | 62% | 1016.7 hPa | 0 mm | - | - | - |
| 1777894222 | 21.11° C | 58% | 1016.7 hPa | 0 mm | - | - | - |
| 1777893910 | 22.22° C | 61% | 1016.9 hPa | 0 mm | - | - | - |
* Rain latest hour (hover to see other rain measurements)
** Current wind speed in m/s (hover to see current wind gust speed)